When you browse on this site, cookies collect data to enhance your experience and personalize the content and advertising you see.
Visit our Privacy Policy to learn more. By continuing to use the site, you agree to this use of cookies and data.
  • In Hungary
  • List of Countries
  • For 7 days
  • Water Temperature
  • Weather Map
  • News
  • Weather Widgets
  • user-avatar
    Login

    Hourly Weather Brzezno

    Today, 5 April, Sunday

    Time Temperature Precipitation Wind Pressure Humidity
    00:00 +3°C° 0 mm 1 mps 759 mmHg 74%
    01:00 +2°C° 0 mm 2 mps 759 mmHg 75%
    02:00 +2°C° 0 mm 2 mps 759 mmHg 75%
    03:00 +2°C° 0 mm 2 mps 759 mmHg 75%
    04:00 +2°C° 0 mm 2 mps 760 mmHg 75%
    05:00 +2°C° 0 mm 2 mps 760 mmHg 72%
    06:00 +3°C° 0 mm 2 mps 760 mmHg 70%
    07:00 +4°C° 0 mm 2 mps 760 mmHg 67%
    08:00 +6°C° 0 mm 2 mps 761 mmHg 60%
    09:00 +8°C° 0 mm 2 mps 761 mmHg 52%
    10:00 +10°C° 0 mm 2 mps 762 mmHg 45%
    11:00 +10°C° 0 mm 3 mps 761 mmHg 43%
    12:00 +11°C° 0 mm 3 mps 761 mmHg 40%
    13:00 +12°C° 0 mm 3 mps 761 mmHg 38%
    14:00 +12°C° 0 mm 3 mps 761 mmHg 39%
    15:00 +12°C° 0 mm 4 mps 760 mmHg 39%
    16:00 +12°C° 0 mm 4 mps 760 mmHg 40%
    17:00 +11°C° 0 mm 3 mps 760 mmHg 46%
    18:00 +9°C° 0 mm 3 mps 760 mmHg 52%
    19:00 +7°C° 0 mm 3 mps 759 mmHg 58%
    20:00 +7°C° 0 mm 3 mps 759 mmHg 60%
    21:00 +7°C° 0 mm 3 mps 759 mmHg 61%
    22:00 +5°C° 0 mm 4 mps 759 mmHg 63%
    23:00 +5°C° 0 mm 4 mps 759 mmHg 63%

    Tomorrow, 6 April, Monday

    Time Temperature Precipitation Wind Pressure Humidity
    00:00 +5°C° 0 mm 4 mps 759 mmHg 64%
    01:00 +4°C° 0 mm 4 mps 759 mmHg 65%
    02:00 +4°C° 0 mm 4 mps 759 mmHg 65%
    03:00 +4°C° 0 mm 4 mps 759 mmHg 65%
    04:00 +3°C° 0 mm 4 mps 758 mmHg 66%
    05:00 +4°C° 0 mm 4 mps 758 mmHg 65%
    06:00 +3°C° 0 mm 5 mps 758 mmHg 64%
    07:00 +5°C° 0 mm 5 mps 758 mmHg 62%
    08:00 +6°C° 0 mm 5 mps 758 mmHg 58%
    09:00 +8°C° 0 mm 5 mps 758 mmHg 54%
    10:00 +10°C° 0 mm 5 mps 759 mmHg 50%
    11:00 +13°C° 0 mm 5 mps 758 mmHg 47%
    12:00 +14°C° 0 mm 5 mps 758 mmHg 44%
    13:00 +16°C° 0 mm 5 mps 758 mmHg 41%
    14:00 +16°C° 0 mm 5 mps 757 mmHg 41%
    15:00 +16°C° 0 mm 5 mps 757 mmHg 41%
    16:00 +16°C° 0 mm 6 mps 757 mmHg 42%
    17:00 +15°C° 0 mm 5 mps 757 mmHg 48%
    18:00 +13°C° 0 mm 4 mps 756 mmHg 55%
    19:00 +11°C° 0 mm 3 mps 756 mmHg 62%
    20:00 +11°C° 0 mm 3 mps 757 mmHg 64%
    21:00 +11°C° 0 mm 3 mps 757 mmHg 66%
    22:00 +10°C° 0 mm 4 mps 757 mmHg 68%
    23:00 +10°C° 0 mm 4 mps 757 mmHg 70%

    Day after tomorrow, 7 April, Tuesday

    Time Temperature Precipitation Wind Pressure Humidity
    00:00 +8°C° 0 mm 4 mps 757 mmHg 71%
    01:00 +8°C° 0 mm 4 mps 757 mmHg 73%
    02:00 +7°C° 0 mm 4 mps 757 mmHg 74%
    03:00 +8°C° 0 mm 3 mps 757 mmHg 75%
    04:00 +7°C° 0 mm 3 mps 757 mmHg 76%
    05:00 +8°C° 0 mm 3 mps 757 mmHg 74%
    06:00 +8°C° 0 mm 3 mps 757 mmHg 72%
    07:00 +8°C° 0 mm 4 mps 757 mmHg 70%
    08:00 +11°C° 0 mm 3 mps 758 mmHg 65%
    09:00 +13°C° 0 mm 3 mps 758 mmHg 60%
    10:00 +16°C° 0 mm 3 mps 758 mmHg 55%
    11:00 +17°C° 0 mm 3 mps 758 mmHg 53%
    12:00 +18°C° 0 mm 3 mps 759 mmHg 50%
    13:00 +20°C° 0 mm 3 mps 759 mmHg 47%
    14:00 +19°C° 0 mm 4 mps 759 mmHg 51%
    15:00 +18°C° 0 mm 4 mps 759 mmHg 54%
    16:00 +18°C° 0 mm 4 mps 759 mmHg 58%
    17:00 +14°C° 0 mm 4 mps 759 mmHg 67%
    18:00 +12°C° 0 mm 3 mps 759 mmHg 75%
    19:00 +10°C° 0 mm 3 mps 759 mmHg 84%
    20:00 +9°C° 0 mm 2 mps 760 mmHg 86%
    21:00 +8°C° 0 mm 2 mps 760 mmHg 87%
    22:00 +7°C° 0 mm 2 mps 760 mmHg 89%
    23:00 +7°C° 0 mm 2 mps 760 mmHg 87%

    8 April, Wednesday

    Time Temperature Precipitation Wind Pressure Humidity
    00:00 +7°C° 0 mm 1 mps 760 mmHg 86%
    01:00 +7°C° 0 mm 1 mps 760 mmHg 84%
    02:00 +7°C° 0 mm 1 mps 760 mmHg 84%
    03:00 +6°C° 0 mm 1 mps 760 mmHg 84%
    04:00 +5°C° 0 mm 0 mps 760 mmHg 84%
    05:00 +6°C° 0 mm 0 mps 760 mmHg 79%
    06:00 +7°C° 0 mm 0 mps 760 mmHg 75%
    07:00 +7°C° 0 mm 0 mps 760 mmHg 71%
    08:00 +10°C° 0 mm 0 mps 760 mmHg 62%
    09:00 +13°C° 0 mm 1 mps 760 mmHg 54%
    10:00 +15°C° 0 mm 1 mps 760 mmHg 46%
    11:00 +16°C° 0 mm 1 mps 759 mmHg 44%
    12:00 +18°C° 0 mm 1 mps 759 mmHg 43%
    13:00 +18°C° 0 mm 1 mps 758 mmHg 42%
    14:00 +17°C° 0 mm 2 mps 758 mmHg 43%
    15:00 +17°C° 0 mm 2 mps 757 mmHg 44%
    16:00 +17°C° 0 mm 2 mps 757 mmHg 46%
    17:00 +15°C° 0 mm 2 mps 756 mmHg 51%
    18:00 +13°C° 0 mm 2 mps 756 mmHg 56%
    19:00 +12°C° 0 mm 2 mps 755 mmHg 61%
    20:00 +11°C° 0 mm 1 mps 755 mmHg 61%
    21:00 +10°C° 0 mm 1 mps 755 mmHg 61%
    22:00 +9°C° 0 mm 1 mps 755 mmHg 61%
    23:00 +9°C° 0 mm 1 mps 754 mmHg 63%

    9 April, Thursday

    Time Temperature Precipitation Wind Pressure Humidity
    00:00 +9°C° 0 mm 1 mps 754 mmHg 64%
    01:00 +9°C° 0 mm 1 mps 754 mmHg 66%
    02:00 +9°C° 0 mm 1 mps 754 mmHg 69%
    03:00 +7°C° 0 mm 2 mps 753 mmHg 72%
    04:00 +7°C° 0 mm 2 mps 753 mmHg 75%
    05:00 +8°C° 0 mm 2 mps 753 mmHg 74%
    06:00 +8°C° 0 mm 3 mps 753 mmHg 74%
    07:00 +9°C° 0 mm 3 mps 753 mmHg 74%
    08:00 +8°C° 0 mm 4 mps 753 mmHg 70%
    09:00 +9°C° 0 mm 5 mps 754 mmHg 66%
    10:00 +10°C° 0 mm 5 mps 754 mmHg 62%
    11:00 +10°C° 0 mm 5 mps 754 mmHg 56%
    12:00 +10°C° 0 mm 6 mps 754 mmHg 49%
    13:00 +10°C° 0 mm 6 mps 754 mmHg 42%
    14:00 +9°C° 0 mm 6 mps 754 mmHg 44%
    15:00 +8°C° 0 mm 6 mps 754 mmHg 46%
    16:00 +8°C° 0 mm 6 mps 754 mmHg 48%
    17:00 +6°C° 0 mm 5 mps 754 mmHg 55%
    18:00 +5°C° 0 mm 4 mps 754 mmHg 62%
    19:00 +4°C° 0 mm 3 mps 754 mmHg 69%
    20:00 +4°C° 0 mm 3 mps 754 mmHg 73%
    21:00 +3°C° 0 mm 3 mps 754 mmHg 77%
    22:00 +3°C° 0 mm 3 mps 754 mmHg 80%
    23:00 +3°C° 0 mm 3 mps 754 mmHg 83%

    10 April, Friday

    Time Temperature Precipitation Wind Pressure Humidity
    00:00 +2°C° 0 mm 3 mps 754 mmHg 86%
    01:00 +3°C° 0 mm 2 mps 755 mmHg 90%
    02:00 +2°C° 0 mm 2 mps 755 mmHg 91%
    03:00 +2°C° 0 mm 2 mps 755 mmHg 92%
    04:00 +2°C° 0 mm 2 mps 755 mmHg 94%
    05:00 +3°C° 0 mm 2 mps 756 mmHg 90%
    06:00 +4°C° 0 mm 2 mps 756 mmHg 86%
    07:00 +4°C° 0 mm 2 mps 756 mmHg 82%
    08:00 +6°C° 0 mm 2 mps 757 mmHg 68%
    09:00 +8°C° 0 mm 2 mps 757 mmHg 55%
    10:00 +10°C° 0 mm 2 mps 757 mmHg 41%
    11:00 +10°C° 0 mm 2 mps 757 mmHg 38%
    12:00 +12°C° 0 mm 2 mps 757 mmHg 34%
    13:00 +13°C° 0 mm 2 mps 757 mmHg 31%
    14:00 +12°C° 0 mm 2 mps 757 mmHg 32%
    15:00 +12°C° 0 mm 2 mps 756 mmHg 32%
    16:00 +12°C° 0 mm 2 mps 756 mmHg 33%
    17:00 +9°C° 0 mm 2 mps 755 mmHg 37%
    18:00 +8°C° 0 mm 2 mps 755 mmHg 42%
    19:00 +6°C° 0 mm 2 mps 755 mmHg 46%
    20:00 +5°C° 0 mm 2 mps 755 mmHg 47%
    21:00 +6°C° 0 mm 1 mps 754 mmHg 48%
    22:00 +5°C° 0 mm 1 mps 754 mmHg 49%
    23:00 +5°C° 0 mm 1 mps 754 mmHg 51%
    Show more